^^
Daily Summary for May 19, 2021 Units:  English    Metric   Both
Daily Weekly Monthly Yearly Custom
  High: Low: Average:
Temperature: 72.0 °F 46.0 °F 58.3 °F
Dew Point: 41.0 °F 30.0 °F 35 °F
Humidity: 64% 25% 43%
Wind Speed: 25mph 0mph 7.3mph
Wind Gust: 25mph - -
Wind- - South
Pressure: 30.0 in 29.9 in -
Precipitation: 0.000 in    
Historical Graphs
 
 
Tabular Data for May 19, 2021
Time Temperature Dew Point Pressure Wind Wind Speed Wind Gust Humidity Rainfall Rate (Hourly) solar
00:04 56.0 °F 30.0 °F 30.0 in SSE 2 mph 2 mph 36% 0.000 in 0.00 W/m2
00:09 56.0 °F 30.0 °F 30.0 in SE 4 mph 3 mph 36% 0.000 in 0.00 W/m2
00:14 56.0 °F 30.0 °F 30.0 in SE 6 mph 1 mph 37% 0.000 in 0.00 W/m2
00:19 56.0 °F 30.0 °F 30.0 in Calm   6 mph 37% 0.000 in 0.00 W/m2
00:24 56.0 °F 30.0 °F 30.0 in Calm     38% 0.000 in 0.00 W/m2
00:29 55.0 °F 31.0 °F 30.0 in SE 2 mph 2 mph 39% 0.000 in 0.00 W/m2
00:34 55.0 °F 31.0 °F 30.0 in Calm     39% 0.000 in 0.00 W/m2
00:39 55.0 °F 31.0 °F 30.0 in SE 2 mph   39% 0.000 in 0.00 W/m2
00:44 55.0 °F 30.0 °F 30.0 in Calm   2 mph 39% 0.000 in 0.00 W/m2
00:49 55.0 °F 31.0 °F 30.0 in SE 2 mph 2 mph 40% 0.000 in 0.00 W/m2
00:54 55.0 °F 31.0 °F 30.0 in Calm     40% 0.000 in 0.00 W/m2
00:59 54.0 °F 31.0 °F 30.0 in Calm     41% 0.000 in 0.00 W/m2
01:04 54.0 °F 30.0 °F 30.0 in Calm     40% 0.000 in 0.00 W/m2
01:09 54.0 °F 30.0 °F 30.0 in SE 2 mph   39% 0.000 in 0.00 W/m2
01:14 54.0 °F 30.0 °F 30.0 in SE 2 mph 2 mph 40% 0.000 in 0.00 W/m2
01:19 54.0 °F 30.0 °F 30.0 in Calm     41% 0.000 in 0.00 W/m2
01:24 53.0 °F 30.0 °F 30.0 in Calm     41% 0.000 in 0.00 W/m2
01:29 53.0 °F 31.0 °F 30.0 in ESE 2 mph   42% 0.000 in 0.00 W/m2
01:34 53.0 °F 31.0 °F 30.0 in ESE 6 mph 6 mph 42% 0.000 in 0.00 W/m2
01:39 53.0 °F 31.0 °F 30.0 in ESE 4 mph 2 mph 43% 0.000 in 0.00 W/m2
01:44 53.0 °F 31.0 °F 30.0 in ESE 6 mph 3 mph 43% 0.000 in 0.00 W/m2
01:49 53.0 °F 31.0 °F 30.0 in East 2 mph 6 mph 43% 0.000 in 0.00 W/m2
01:54 53.0 °F 31.0 °F 30.0 in SE 2 mph 2 mph 43% 0.000 in 0.00 W/m2
01:59 53.0 °F 30.0 °F 30.0 in SE 2 mph 2 mph 42% 0.000 in 0.00 W/m2
02:04 53.0 °F 31.0 °F 30.0 in SE 6 mph 2 mph 43% 0.000 in 0.00 W/m2
02:09 52.0 °F 31.0 °F 30.0 in ESE 4 mph 6 mph 44% 0.000 in 0.00 W/m2
02:14 52.0 °F 31.0 °F 30.0 in SSE 6 mph 3 mph 44% 0.000 in 0.00 W/m2
02:19 52.0 °F 31.0 °F 30.0 in Calm   6 mph 44% 0.000 in 0.00 W/m2
02:24 52.0 °F 31.0 °F 30.0 in SSW 4 mph 1 mph 44% 0.000 in 0.00 W/m2
02:29 52.0 °F 32.0 °F 30.0 in SW 4 mph 3 mph 45% 0.000 in 0.00 W/m2
02:34 52.0 °F 32.0 °F 30.0 in SW 4 mph 3 mph 45% 0.000 in 0.00 W/m2
02:39 52.0 °F 30.0 °F 30.0 in SW 4 mph 3 mph 43% 0.000 in 0.00 W/m2
02:44 52.0 °F 31.0 °F 30.0 in Calm     44% 0.000 in 0.00 W/m2
02:49 52.0 °F 31.0 °F 30.0 in Calm     44% 0.000 in 0.00 W/m2
02:54 52.0 °F 31.0 °F 30.0 in Calm     45% 0.000 in 0.00 W/m2
02:59 52.0 °F 31.0 °F 30.0 in SW 2 mph   44% 0.000 in 0.00 W/m2
03:04 52.0 °F 31.0 °F 30.0 in SW 2 mph 2 mph 45% 0.000 in 0.00 W/m2
03:09 51.0 °F 31.0 °F 30.0 in Calm     45% 0.000 in 0.00 W/m2
03:14 51.0 °F 31.0 °F 30.0 in SW 2 mph   45% 0.000 in 0.00 W/m2
03:19 51.0 °F 31.0 °F 30.0 in SW 7 mph 2 mph 45% 0.000 in 0.00 W/m2
03:24 51.0 °F 31.0 °F 30.0 in ESE 6 mph 7 mph 46% 0.000 in 0.00 W/m2
03:29 51.0 °F 31.0 °F 30.0 in ESE 4 mph 6 mph 47% 0.000 in 0.00 W/m2
03:34 51.0 °F 31.0 °F 30.0 in WSW 4 mph 3 mph 47% 0.000 in 0.00 W/m2
03:39 50.0 °F 31.0 °F 30.0 in Calm   3 mph 47% 0.000 in 0.00 W/m2
03:44 50.0 °F 31.0 °F 30.0 in Calm     47% 0.000 in 0.00 W/m2
03:49 50.0 °F 31.0 °F 30.0 in Calm     47% 0.000 in 0.00 W/m2
03:54 50.0 °F 31.0 °F 30.0 in SW 4 mph 1 mph 48% 0.000 in 0.00 W/m2
03:59 50.0 °F 32.0 °F 30.0 in SW 4 mph 3 mph 49% 0.000 in 0.00 W/m2
04:04 50.0 °F 31.0 °F 30.0 in SSW 4 mph 3 mph 48% 0.000 in 0.00 W/m2
04:09 50.0 °F 31.0 °F 30.0 in South 4 mph 2 mph 48% 0.000 in 0.00 W/m2
04:14 50.0 °F 32.0 °F 30.0 in South 4 mph 3 mph 50% 0.000 in 0.00 W/m2
04:19 50.0 °F 31.0 °F 30.0 in SSE 2 mph 1 mph 49% 0.000 in 0.00 W/m2
04:24 50.0 °F 31.0 °F 30.0 in SE 6 mph 6 mph 49% 0.000 in 0.00 W/m2
04:29 49.0 °F 31.0 °F 30.0 in SW 9 mph 3 mph 50% 0.000 in 0.00 W/m2
04:34 49.0 °F 32.0 °F 30.0 in SSW 7 mph 9 mph 51% 0.000 in 0.00 W/m2
04:39 49.0 °F 32.0 °F 30.0 in South 2 mph 3 mph 52% 0.000 in 0.00 W/m2
04:44 49.0 °F 32.0 °F 30.0 in Calm   2 mph 51% 0.000 in 0.00 W/m2
04:49 49.0 °F 32.0 °F 30.0 in Calm     51% 0.000 in 0.00 W/m2
04:54 49.0 °F 32.0 °F 30.0 in South 2 mph   52% 0.000 in 0.00 W/m2
04:59 49.0 °F 32.0 °F 30.0 in SE 4 mph 2 mph 53% 0.000 in 0.00 W/m2
05:04 48.0 °F 32.0 °F 30.0 in Calm   3 mph 53% 0.000 in 0.00 W/m2
05:09 48.0 °F 32.0 °F 30.0 in Calm     53% 0.000 in 0.00 W/m2
05:14 48.0 °F 32.0 °F 30.0 in Calm     54% 0.000 in 0.00 W/m2
05:19 48.0 °F 32.0 °F 30.0 in Calm     54% 0.000 in 0.00 W/m2
05:24 48.0 °F 32.0 °F 30.0 in Calm     54% 0.000 in 0.00 W/m2
05:29 48.0 °F 32.0 °F 30.0 in South 2 mph 1 mph 54% 0.000 in 0.00 W/m2
05:34 48.0 °F 32.0 °F 30.0 in Calm   2 mph 54% 0.000 in 0.00 W/m2
05:39 47.0 °F 32.0 °F 30.0 in Calm     55% 0.000 in 0.00 W/m2
05:44 47.0 °F 32.0 °F 30.0 in Calm     55% 0.000 in 0.00 W/m2
05:49 47.0 °F 32.0 °F 30.0 in SSW 2 mph   55% 0.000 in 0.00 W/m2
05:54 47.0 °F 32.0 °F 30.0 in Calm   2 mph 57% 0.000 in 0.00 W/m2
05:59 47.0 °F 33.0 °F 30.0 in Calm     58% 0.000 in 5.00 W/m2
06:04 47.0 °F 32.0 °F 30.0 in Calm     57% 0.000 in 5.00 W/m2
06:09 47.0 °F 32.0 °F 30.0 in Calm     57% 0.000 in 7.00 W/m2
06:14 46.0 °F 33.0 °F 30.0 in Calm     59% 0.000 in 7.00 W/m2
06:19 46.0 °F 32.0 °F 30.0 in ENE 4 mph 3 mph 58% 0.000 in 9.00 W/m2
06:24 46.0 °F 32.0 °F 30.0 in East 2 mph 3 mph 58% 0.000 in 9.00 W/m2
06:29 46.0 °F 32.0 °F 30.0 in ESE 4 mph 2 mph 59% 0.000 in 11.00 W/m2
06:34 46.0 °F 32.0 °F 30.0 in ESE 6 mph 3 mph 59% 0.000 in 11.00 W/m2
06:39 46.0 °F 33.0 °F 30.0 in SE 4 mph 6 mph 60% 0.000 in 12.00 W/m2
06:44 46.0 °F 33.0 °F 30.0 in ESE 4 mph 3 mph 60% 0.000 in 14.00 W/m2
06:49 46.0 °F 34.0 °F 30.0 in East 5 mph 3 mph 62% 0.000 in 14.00 W/m2
06:54 46.0 °F 34.0 °F 30.0 in SSE 7 mph 6 mph 62% 0.000 in 16.00 W/m2
06:59 46.0 °F 34.0 °F 30.0 in East 7 mph 7 mph 63% 0.000 in 18.00 W/m2
07:04 46.0 °F 34.0 °F 30.0 in ESE 7 mph 7 mph 63% 0.000 in 19.00 W/m2
07:09 46.0 °F 34.0 °F 30.0 in East 6 mph 7 mph 63% 0.000 in 21.00 W/m2
07:14 46.0 °F 34.0 °F 30.0 in ENE 9 mph 6 mph 63% 0.000 in 23.00 W/m2
07:19 46.0 °F 35.0 °F 30.0 in East 9 mph 9 mph 64% 0.000 in 23.00 W/m2
07:24 47.0 °F 35.0 °F 30.0 in ESE 9 mph 6 mph 64% 0.000 in 23.00 W/m2
07:29 47.0 °F 35.0 °F 30.0 in East 9 mph 9 mph 63% 0.000 in 23.00 W/m2
07:34 47.0 °F 35.0 °F 30.0 in SE 7 mph 9 mph 63% 0.000 in 25.00 W/m2
07:39 47.0 °F 35.0 °F 30.0 in ESE 4 mph 7 mph 63% 0.000 in 25.00 W/m2
07:44 47.0 °F 35.0 °F 30.0 in ESE 9 mph 9 mph 63% 0.000 in 44.00 W/m2
07:49 47.0 °F 36.0 °F 30.0 in East 9 mph 6 mph 64% 0.000 in 69.00 W/m2
07:54 48.0 °F 36.0 °F 30.0 in ESE 9 mph 9 mph 64% 0.000 in 42.00 W/m2
07:59 48.0 °F 36.0 °F 30.0 in ESE 9 mph 9 mph 64% 0.000 in 91.00 W/m2
08:04 48.0 °F 36.0 °F 30.0 in SSE 6 mph 9 mph 63% 0.000 in 88.00 W/m2
08:09 49.0 °F 37.0 °F 30.0 in ESE 9 mph 6 mph 64% 0.000 in 113.00 W/m2
08:14 49.0 °F 37.0 °F 30.0 in SE 4 mph 9 mph 62% 0.000 in 69.00 W/m2
08:19 50.0 °F 37.0 °F 30.0 in SSW 16 mph 10 mph 62% 0.000 in 120.00 W/m2
08:24 50.0 °F 37.0 °F 30.0 in SW 16 mph 16 mph 62% 0.000 in 120.00 W/m2
08:29 51.0 °F 38.0 °F 30.0 in ESE 11 mph 10 mph 61% 0.000 in 176.00 W/m2
08:34 51.0 °F 38.0 °F 30.0 in SSW 7 mph 10 mph 62% 0.000 in 135.00 W/m2
08:39 52.0 °F 39.0 °F 30.0 in SW 9 mph 9 mph 62% 0.000 in 141.00 W/m2
08:44 52.0 °F 39.0 °F 30.0 in East 7 mph 9 mph 61% 0.000 in 369.00 W/m2
08:49 52.0 °F 39.0 °F 30.0 in SSE 7 mph 7 mph 60% 0.000 in 557.00 W/m2
08:54 53.0 °F 39.0 °F 30.0 in SW 11 mph 10 mph 59% 0.000 in 573.00 W/m2
08:59 53.0 °F 39.0 °F 30.0 in South 9 mph 10 mph 58% 0.000 in 589.00 W/m2
09:04 54.0 °F 39.0 °F 30.0 in WSW 7 mph 7 mph 57% 0.000 in 605.00 W/m2
09:09 54.0 °F 39.0 °F 30.0 in SSE 9 mph 7 mph 57% 0.000 in 624.00 W/m2
09:14 54.0 °F 39.0 °F 30.0 in SE 6 mph 9 mph 56% 0.000 in 635.00 W/m2
09:19 55.0 °F 39.0 °F 30.0 in SSW 16 mph 7 mph 55% 0.000 in 649.00 W/m2
09:24 55.0 °F 39.0 °F 30.0 in East 7 mph 16 mph 55% 0.000 in 666.00 W/m2
09:29 55.0 °F 39.0 °F 30.0 in SSW 7 mph 7 mph 55% 0.000 in 677.00 W/m2
09:34 56.0 °F 39.0 °F 30.0 in SW 13 mph 8 mph 54% 0.000 in 696.00 W/m2
09:39 56.0 °F 41.0 °F 30.0 in SW 6 mph 13 mph 56% 0.000 in 707.00 W/m2
09:44 57.0 °F 40.0 °F 30.0 in East 7 mph 6 mph 55% 0.000 in 721.00 W/m2
09:49 57.0 °F 41.0 °F 30.0 in ESE 7 mph 7 mph 55% 0.000 in 735.00 W/m2
09:54 58.0 °F 41.0 °F 30.0 in ENE 16 mph 9 mph 53% 0.000 in 749.00 W/m2
09:59 58.0 °F 40.0 °F 30.0 in WSW 16 mph 16 mph 52% 0.000 in 759.00 W/m2
10:04 59.0 °F 39.0 °F 30.0 in ESE 13 mph 9 mph 49% 0.000 in 773.00 W/m2
10:09 59.0 °F 39.0 °F 30.0 in SE 13 mph 13 mph 48% 0.000 in 784.00 W/m2
10:14 59.0 °F 39.0 °F 30.0 in East 16 mph 13 mph 48% 0.000 in 795.00 W/m2
10:19 59.0 °F 39.0 °F 30.0 in SW 16 mph 16 mph 46% 0.000 in 809.00 W/m2
10:24 60.0 °F 40.0 °F 30.0 in SE 12 mph 10 mph 48% 0.000 in 809.00 W/m2
10:26 60.0 °F 40.0 °F 30.0 in SW 13 mph 13 mph 47% 0.000 in 823.00 W/m2
10:39 61.0 °F 40.0 °F 30.0 in SE 2 mph 12 mph 46% 0.000 in 849.00 W/m2
10:49 62.0 °F 40.0 °F 30.0 in Calm   10 mph 45% 0.000 in 868.00 W/m2
10:54 62.0 °F 39.0 °F 30.0 in SW 3 mph 19 mph 43% 0.000 in 877.00 W/m2
10:59 62.0 °F 40.0 °F 30.0 in SW 2 mph 9 mph 44% 0.000 in 889.00 W/m2
11:04 62.0 °F 39.0 °F 30.0 in SW 6 mph 10 mph 43% 0.000 in 898.00 W/m2
11:09 62.0 °F 40.0 °F 30.0 in SW 2 mph 10 mph 43% 0.000 in 902.00 W/m2
11:14 62.0 °F 39.0 °F 30.0 in SW 2 mph 17 mph 42% 0.000 in 911.00 W/m2
11:24 62.0 °F 39.0 °F 30.0 in SW 13 mph 9 mph 42% 0.000 in 921.00 W/m2
11:29 63.0 °F 40.0 °F 30.0 in SSW 11 mph 13 mph 44% 0.000 in 928.00 W/m2
11:34 63.0 °F 39.0 °F 30.0 in SSW 13 mph 10 mph 42% 0.000 in 935.00 W/m2
11:39 63.0 °F 40.0 °F 30.0 in South 11 mph 13 mph 43% 0.000 in 942.00 W/m2
11:44 63.0 °F 39.0 °F 30.0 in SW 11 mph 10 mph 40% 0.000 in 942.00 W/m2
11:49 63.0 °F 39.0 °F 30.0 in West 13 mph 10 mph 40% 0.000 in 951.00 W/m2
11:54 63.0 °F 39.0 °F 30.0 in SW 9 mph 13 mph 40% 0.000 in 958.00 W/m2
11:59 63.0 °F 39.0 °F 30.0 in SSW 13 mph 9 mph 40% 0.000 in 958.00 W/m2
12:04 63.0 °F 37.0 °F 30.0 in SW 11 mph 13 mph 38% 0.000 in 962.00 W/m2
12:09 63.0 °F 37.0 °F 30.0 in SSE 21 mph 10 mph 38% 0.000 in 963.00 W/m2
12:14 63.0 °F 37.0 °F 30.0 in SSW 14 mph 21 mph 38% 0.000 in 970.00 W/m2
12:19 64.0 °F 37.0 °F 30.0 in SSW 9 mph 10 mph 37% 0.000 in 974.00 W/m2
12:24 64.0 °F 37.0 °F 30.0 in ENE 13 mph 9 mph 37% 0.000 in 976.00 W/m2
12:29 65.0 °F 38.0 °F 30.0 in SE 18 mph 17 mph 37% 0.000 in 983.00 W/m2
12:34 65.0 °F 36.0 °F 30.0 in East 7 mph 14 mph 34% 0.000 in 979.00 W/m2
12:39 66.0 °F 36.0 °F 30.0 in SSW 9 mph 7 mph 34% 0.000 in 981.00 W/m2
12:44 66.0 °F 36.0 °F 30.0 in ENE 7 mph 9 mph 33% 0.000 in 983.00 W/m2
12:49 67.0 °F 37.0 °F 30.0 in SW 13 mph 10 mph 34% 0.000 in 983.00 W/m2
12:54 67.0 °F 36.0 °F 30.0 in SSW 9 mph 13 mph 32% 0.000 in 983.00 W/m2
12:59 67.0 °F 37.0 °F 30.0 in SW 7 mph 7 mph 33% 0.000 in 983.00 W/m2
13:04 67.0 °F 36.0 °F 30.0 in West 13 mph 9 mph 31% 0.000 in 981.00 W/m2
13:09 67.0 °F 36.0 °F 30.0 in South 9 mph 13 mph 31% 0.000 in 977.00 W/m2
13:14 68.0 °F 37.0 °F 30.0 in East 7 mph 9 mph 32% 0.000 in 981.00 W/m2
13:19 68.0 °F 37.0 °F 30.0 in SSE 11 mph 7 mph 32% 0.000 in 972.00 W/m2
13:24 68.0 °F 36.0 °F 30.0 in West 11 mph 10 mph 31% 0.000 in 969.00 W/m2
13:29 68.0 °F 37.0 °F 30.0 in SSW 7 mph 9 mph 32% 0.000 in 963.00 W/m2
13:34 69.0 °F 38.0 °F 30.0 in SSE 11 mph 7 mph 33% 0.000 in 962.00 W/m2
13:39 69.0 °F 38.0 °F 30.0 in SSE 13 mph 10 mph 32% 0.000 in 956.00 W/m2
13:44 69.0 °F 38.0 °F 30.0 in SE 11 mph 13 mph 32% 0.000 in 953.00 W/m2
13:49 69.0 °F 37.0 °F 30.0 in SW 13 mph 13 mph 30% 0.000 in 951.00 W/m2
13:54 69.0 °F 36.0 °F 30.0 in South 13 mph 13 mph 29% 0.000 in 946.00 W/m2
13:59 69.0 °F 37.0 °F 30.0 in WSW 9 mph 13 mph 31% 0.000 in 937.00 W/m2
14:04 70.0 °F 37.0 °F 30.0 in SSE 11 mph 10 mph 31% 0.000 in 932.00 W/m2
14:09 70.0 °F 37.0 °F 30.0 in ENE 10 mph 10 mph 30% 0.000 in 926.00 W/m2
14:14 70.0 °F 37.0 °F 30.0 in WSW 11 mph 11 mph 30% 0.000 in 921.00 W/m2
14:19 70.0 °F 38.0 °F 30.0 in SW 13 mph 10 mph 31% 0.000 in 912.00 W/m2
14:24 70.0 °F 37.0 °F 30.0 in SSE 7 mph 13 mph 30% 0.000 in 904.00 W/m2
14:29 70.0 °F 38.0 °F 30.0 in SSE 7 mph 7 mph 31% 0.000 in 893.00 W/m2
14:34 70.0 °F 38.0 °F 30.0 in SSW 11 mph 10 mph 31% 0.000 in 889.00 W/m2
14:39 71.0 °F 37.0 °F 30.0 in SSW 20 mph 11 mph 29% 0.000 in 882.00 W/m2
14:44 70.0 °F 37.0 °F 30.0 in SSW 13 mph 20 mph 30% 0.000 in 870.00 W/m2
14:49 70.0 °F 38.0 °F 30.0 in SW 6 mph 13 mph 31% 0.000 in 858.00 W/m2
14:54 71.0 °F 39.0 °F 30.0 in NE 11 mph 6 mph 31% 0.000 in 851.00 W/m2
14:59 72.0 °F 38.0 °F 30.0 in South 13 mph 11 mph 30% 0.000 in 844.00 W/m2
15:03 72.0 °F 37.0 °F 30.0 in SSE 9 mph 13 mph 28% 0.000 in 835.00 W/m2
15:09 71.0 °F 38.0 °F 30.0 in SSE 12 mph 9 mph 30% 0.000 in 821.00 W/m2
15:14 72.0 °F 38.0 °F 30.0 in South 13 mph 13 mph 30% 0.000 in 814.00 W/m2
15:19 72.0 °F 37.0 °F 30.0 in SW 9 mph 13 mph 28% 0.000 in 800.00 W/m2
15:24 72.0 °F 38.0 °F 30.0 in East 7 mph 7 mph 29% 0.000 in 788.00 W/m2
15:29 72.0 °F 38.0 °F 29.9 in South 18 mph 8 mph 29% 0.000 in 777.00 W/m2
15:34 72.0 °F 38.0 °F 29.9 in SSW 7 mph 17 mph 29% 0.000 in 761.00 W/m2
15:39 72.0 °F 40.0 °F 29.9 in East 7 mph 7 mph 31% 0.000 in 751.00 W/m2
15:44 72.0 °F 37.0 °F 29.9 in SW 12 mph 7 mph 28% 0.000 in 740.00 W/m2
15:49 72.0 °F 37.0 °F 29.9 in WSW 13 mph 13 mph 28% 0.000 in 724.00 W/m2
15:54 72.0 °F 38.0 °F 29.9 in West 13 mph 13 mph 29% 0.000 in 714.00 W/m2
15:59 72.0 °F 38.0 °F 29.9 in WSW 13 mph 10 mph 29% 0.000 in 701.00 W/m2
16:04 71.0 °F 37.0 °F 30.0 in SW 13 mph 13 mph 28% 0.000 in 686.00 W/m2
16:09 72.0 °F 38.0 °F 29.9 in SE 11 mph 10 mph 29% 0.000 in 671.00 W/m2
16:14 72.0 °F 38.0 °F 29.9 in West 25 mph 14 mph 29% 0.000 in 659.00 W/m2
16:19 72.0 °F 38.0 °F 29.9 in SSE 24 mph 25 mph 29% 0.000 in 647.00 W/m2
16:24 72.0 °F 36.0 °F 29.9 in WSW 13 mph 6 mph 27% 0.000 in 629.00 W/m2
16:29 72.0 °F 35.0 °F 29.9 in WSW 9 mph 13 mph 26% 0.000 in 615.00 W/m2
16:34 72.0 °F 35.0 °F 29.9 in SSE 9 mph 9 mph 26% 0.000 in 601.00 W/m2
16:39 72.0 °F 37.0 °F 29.9 in ESE 9 mph 9 mph 28% 0.000 in 587.00 W/m2
16:43 72.0 °F 37.0 °F 29.9 in South 9 mph 8 mph 27% 0.000 in 575.00 W/m2
16:49 72.0 °F 35.0 °F 29.9 in SSW 9 mph 9 mph 25% 0.000 in 561.00 W/m2
16:54 72.0 °F 35.0 °F 29.9 in SSE 9 mph 9 mph 26% 0.000 in 543.00 W/m2
16:59 72.0 °F 34.0 °F 29.9 in SSE 23 mph 10 mph 25% 0.000 in 527.00 W/m2
17:04 72.0 °F 35.0 °F 29.9 in ESE 11 mph 23 mph 26% 0.000 in 510.00 W/m2
17:09 72.0 °F 35.0 °F 29.9 in ESE 6 mph 10 mph 26% 0.000 in 492.00 W/m2
17:14 72.0 °F 34.0 °F 29.9 in SW 11 mph 7 mph 25% 0.000 in 478.00 W/m2
17:19 72.0 °F 34.0 °F 29.9 in SSW 19 mph 10 mph 25% 0.000 in 464.00 W/m2
17:24 71.0 °F 35.0 °F 29.9 in SSE 11 mph 19 mph 26% 0.000 in 446.00 W/m2
17:29 71.0 °F 34.0 °F 29.9 in SSE 9 mph 10 mph 26% 0.000 in 429.00 W/m2
17:34 71.0 °F 34.0 °F 29.9 in SW 11 mph 9 mph 26% 0.000 in 413.00 W/m2
17:39 71.0 °F 35.0 °F 29.9 in ESE 13 mph 10 mph 27% 0.000 in 396.00 W/m2
17:44 70.0 °F 35.0 °F 29.9 in SW 16 mph 13 mph 27% 0.000 in 373.00 W/m2
17:49 70.0 °F 34.0 °F 29.9 in West 16 mph 16 mph 27% 0.000 in 86.00 W/m2
17:54 70.0 °F 34.0 °F 29.9 in SSW 9 mph 9 mph 27% 0.000 in 60.00 W/m2
17:59 69.0 °F 34.0 °F 29.9 in SSW 11 mph 9 mph 28% 0.000 in 54.00 W/m2
18:04 68.0 °F 35.0 °F 29.9 in SSW 9 mph 10 mph 29% 0.000 in 51.00 W/m2
18:08 68.0 °F 35.0 °F 29.9 in SSW 6 mph 9 mph 30% 0.000 in 47.00 W/m2
El Dorado Weather
Compliments of Weather Underground - 2 mb